Conway, MI

11:47 PM EST on February 13, 2016 (GMT -0500)
Harbor Springs

Weather History for KMGN - May, 2013

Change the Weather History Date:

Tuesday, May 14, 2013

  Actual Average (KPLN) Record (KPLN)
Temperature  
Mean Temperature 52 °F -  
Max Temperature 67 °F 63 °F 82 °F (1991)
Min Temperature 37 °F 37 °F 20 °F (1953)
Degree Days  
Heating Degree Days 13    
Growing Degree Days 2 (Base 50)    
Moisture  
Dew Point 37 °F    
Average Humidity 58    
Maximum Humidity 89    
Minimum Humidity 39    
Precipitation  
Precipitation 0.00 in - - ()
Sea Level Pressure  
Sea Level Pressure 29.83 in    
Wind  
Wind Speed 5 mph (East)    
Max Wind Speed 12 mph    
Max Gust Speed 18 mph    
Visibility 10 miles    
Events Rain    
Averages and records for this station are not official NWS values.
T = Trace of Precipitation, MM = Missing Value Source: NWS Daily Summary

Daily Weather History Graph

Daily Weather History Graph

Search for Another Location

Airport or City:

Trip Planner

Search our weather history database for the weather conditions in past years. The results will help you decide how hot, cold, wet, or windy it might be!

Date:

Astronomy

May. 14, 2013 Rise Set
Actual Time 6:10 AM EDT 9:02 PM EDT
Civil Twilight 5:35 AM EDT 9:37 PM EDT
Nautical Twilight 4:51 AM EDT 10:21 PM EDT
Astronomical Twilight 4:00 AM EDT 11:13 PM EDT
Moon 9:49 AM EDT 12:10 AM EDT
Length of Visible Light 16h 01m
Length of Day
14h 52m
Waxing Crescent, 19% of the Moon is Illuminated
May 14
Waxing Crescent
May 18
First Quarter
May 25
Full
May 31
Last Quarter
Jun 8
New

Hourly Weather History & Observations

Time (EDT) Temp. Windchill Dew Point Humidity Pressure Visibility Wind Dir Wind Speed Gust Speed Precip Events Conditions
12:15 AM 39.2 °F - 29.7 °F 69% 30.03 in 10.0 mi Calm Calm - N/A   Overcast
12:35 AM 38.8 °F - 30.7 °F 73% 30.02 in 10.0 mi Calm Calm - N/A   Overcast
12:55 AM 38.8 °F - 30.2 °F 71% 30.01 in 10.0 mi Calm Calm - N/A   Overcast
1:15 AM 39.2 °F - 29.8 °F 69% 30.01 in 10.0 mi Calm Calm - N/A   Overcast
1:35 AM 39.2 °F - 30.2 °F 70% 30.01 in 10.0 mi Calm Calm - N/A   Overcast
1:55 AM 40.3 °F - 28.6 °F 63% 30.00 in 10.0 mi Calm Calm - N/A   Overcast
2:14 AM 40.6 °F - 27.1 °F 59% 30.01 in 10.0 mi Calm Calm - N/A   Overcast
2:35 AM 41.5 °F - 25.0 °F 52% 30.00 in 10.0 mi Calm Calm - N/A   Overcast
2:55 AM 41.2 °F 39.2 °F 25.9 °F 55% 29.99 in 10.0 mi SSW 3.5 mph - N/A   Drizzle
3:15 AM 41.0 °F 38.0 °F 27.1 °F 58% 29.97 in 10.0 mi ESE 4.6 mph - N/A   Light Drizzle
3:35 AM 41.2 °F 38.2 °F 28.2 °F 60% 29.97 in 10.0 mi ENE 4.6 mph - N/A   Overcast
3:55 AM 40.8 °F 36.9 °F 28.9 °F 63% 29.96 in 10.0 mi East 5.8 mph - N/A Rain Light Rain
4:15 AM 40.1 °F 34.1 °F 29.1 °F 65% 29.95 in 10.0 mi ENE 9.2 mph - N/A Rain Light Rain
4:35 AM 40.1 °F 35.3 °F 30.6 °F 69% 29.94 in 10.0 mi ENE 6.9 mph - N/A Rain Light Rain
4:55 AM 40.1 °F 34.7 °F 31.3 °F 71% 29.92 in 10.0 mi East 8.1 mph - N/A   Light Drizzle
5:15 AM 40.1 °F 34.7 °F 32.0 °F 73% 29.94 in 10.0 mi East 8.1 mph - N/A   Drizzle
5:35 AM 39.2 °F 33.0 °F 33.3 °F 79% 29.94 in 10.0 mi ENE 9.2 mph - N/A   Drizzle
5:55 AM 37.8 °F 30.2 °F 33.4 °F 84% 29.93 in 10.0 mi East 11.5 mph - N/A Rain Light Rain
6:15 AM 37.8 °F 30.2 °F 34.2 °F 87% 29.92 in 10.0 mi East 11.5 mph - N/A Rain Light Rain
6:35 AM 37.6 °F 30.5 °F 34.5 °F 89% 29.93 in 10.0 mi ENE 10.4 mph - N/A Rain Rain
6:55 AM 37.8 °F 31.3 °F 34.7 °F 89% 29.91 in 10.0 mi East 9.2 mph - N/A Rain Light Rain
7:15 AM 38.5 °F 32.7 °F 34.9 °F 87% 29.91 in 10.0 mi East 8.1 mph - N/A   Overcast
7:35 AM 39.2 °F 32.5 °F 34.3 °F 83% 29.91 in 10.0 mi East 10.4 mph - N/A   Overcast
7:55 AM 40.1 °F 35.3 °F 34.7 °F 81% 29.91 in 10.0 mi East 6.9 mph - N/A   Overcast
8:15 AM 40.3 °F 33.9 °F 34.9 °F 81% 29.89 in 10.0 mi East 10.4 mph - N/A   Overcast
8:35 AM 41.5 °F 35.4 °F 35.4 °F 79% 29.88 in 10.0 mi East 10.4 mph 17.3 mph N/A   Overcast
8:55 AM 45.1 °F 40.3 °F 37.6 °F 75% 29.86 in 10.0 mi East 9.2 mph 16.1 mph N/A   Scattered Clouds
9:15 AM 47.7 °F - 38.5 °F 70% 29.86 in 10.0 mi East 9.2 mph 16.1 mph N/A   Clear
9:35 AM 47.7 °F - 35.4 °F 63% 29.84 in 10.0 mi East 10.4 mph 18.4 mph N/A   Clear
9:55 AM 50.2 °F - 35.1 °F 56% 29.84 in 10.0 mi East 10.4 mph 17.3 mph N/A   Clear
10:15 AM 52.7 °F - 35.4 °F 52% 29.83 in 10.0 mi ESE 8.1 mph - N/A   Scattered Clouds
10:35 AM 52.7 °F - 34.9 °F 51% 29.82 in 10.0 mi East 10.4 mph 16.1 mph N/A   Clear
10:55 AM 55.4 °F - 36.5 °F 49% 29.79 in 10.0 mi SE 8.1 mph - N/A   Clear
11:15 AM 55.6 °F - 35.6 °F 47% 29.81 in 10.0 mi ESE 9.2 mph 17.3 mph N/A   Clear
11:35 AM 57.7 °F - 36.3 °F 45% 29.81 in 10.0 mi ESE 6.9 mph - N/A   Clear
11:55 AM 58.8 °F - 36.3 °F 43% 29.83 in 10.0 mi ESE 6.9 mph - N/A   Clear
12:15 PM 59.0 °F - 36.0 °F 42% 29.82 in 10.0 mi South 3.5 mph - N/A   Clear
12:35 PM 59.2 °F - 35.2 °F 41% 29.81 in 10.0 mi SW 6.9 mph - N/A   Clear
12:55 PM 60.3 °F - 36.1 °F 41% 29.81 in 10.0 mi ESE 3.5 mph - N/A   Clear
1:15 PM 60.6 °F - 36.9 °F 41% 29.80 in 10.0 mi SW 4.6 mph - N/A   Clear
1:35 PM 60.6 °F - 36.5 °F 41% 29.81 in 10.0 mi WSW 4.6 mph - N/A   Clear
1:55 PM 61.2 °F - 37.0 °F 41% 29.79 in 10.0 mi SW 5.8 mph - N/A   Clear
2:15 PM 61.3 °F - 37.2 °F 41% 29.81 in 10.0 mi WSW 4.6 mph - N/A   Clear
2:35 PM 61.7 °F - 38.1 °F 42% 29.81 in 10.0 mi WSW 3.5 mph - N/A   Clear
2:55 PM 61.0 °F - 37.6 °F 42% 29.79 in 10.0 mi WSW 4.6 mph - N/A   Clear
3:15 PM 62.1 °F - 38.3 °F 41% 29.79 in 10.0 mi Calm Calm - N/A   Clear
3:35 PM 64.9 °F - 40.1 °F 40% 29.79 in 10.0 mi SSW 3.5 mph - N/A   Clear
3:55 PM 66.0 °F - 40.6 °F 39% 29.78 in 10.0 mi SE 3.5 mph - N/A   Clear
4:15 PM 67.8 °F - 43.0 °F 41% 29.78 in 10.0 mi NNE 6.9 mph - N/A   Clear
4:35 PM 65.5 °F - 41.0 °F 41% 29.77 in 10.0 mi Calm Calm - N/A   Clear
4:55 PM 67.1 °F - 42.4 °F 41% 29.76 in 10.0 mi ENE 6.9 mph - N/A   Clear
5:15 PM 66.4 °F - 42.1 °F 41% 29.75 in 10.0 mi ESE 4.6 mph - N/A   Clear
5:35 PM 66.9 °F - 43.0 °F 42% 29.74 in 10.0 mi East 4.6 mph - N/A   Clear
5:55 PM 61.3 °F - 40.3 °F 46% 29.74 in 10.0 mi SW 3.5 mph - N/A   Clear
6:15 PM 59.7 °F - 41.2 °F 50% 29.73 in 10.0 mi Calm Calm - N/A   Clear
6:35 PM 62.2 °F - 42.6 °F 49% 29.72 in 10.0 mi Calm Calm - N/A   Clear
6:55 PM 65.5 °F - 43.3 °F 45% 29.70 in 10.0 mi ENE 9.2 mph - N/A   Clear
7:15 PM 65.3 °F - 44.2 °F 46% 29.71 in 10.0 mi East 4.6 mph - N/A   Clear
7:35 PM 65.3 °F - 45.0 °F 48% 29.70 in 10.0 mi ENE 6.9 mph - N/A   Scattered Clouds
7:55 PM 65.3 °F - 44.4 °F 47% 29.69 in 10.0 mi East 5.8 mph - N/A   Scattered Clouds
8:15 PM 61.0 °F - 43.7 °F 53% 29.68 in 10.0 mi East 10.4 mph - N/A   Scattered Clouds
8:35 PM 60.1 °F - 43.9 °F 55% 29.68 in 10.0 mi East 9.2 mph - N/A   Clear
8:55 PM 59.0 °F - 43.9 °F 57% 29.67 in 10.0 mi East 11.5 mph - N/A   Clear
9:15 PM 57.9 °F - 43.5 °F 59% 29.66 in 10.0 mi East 9.2 mph - N/A   Clear
9:35 PM 57.7 °F - 44.6 °F 62% 29.66 in 10.0 mi East 8.1 mph - N/A   Clear
9:55 PM 55.4 °F - 43.3 °F 64% 29.67 in 10.0 mi ENE 6.9 mph - N/A   Clear
10:15 PM 55.4 °F - 43.5 °F 64% 29.67 in 10.0 mi ENE 8.1 mph - N/A   Clear
10:35 PM 55.4 °F - 43.7 °F 65% 29.67 in 10.0 mi ENE 6.9 mph - N/A   Clear
10:55 PM 55.4 °F - 44.4 °F 67% 29.66 in 10.0 mi ENE 8.1 mph - N/A   Scattered Clouds
11:15 PM 55.0 °F - 44.6 °F 68% 29.65 in 10.0 mi ENE 8.1 mph - N/A   Scattered Clouds
11:35 PM 54.3 °F - 44.1 °F 68% 29.64 in 10.0 mi ENE 9.2 mph - N/A   Scattered Clouds
11:55 PM 52.7 °F - 43.0 °F 70% 29.63 in 10.0 mi ENE 5.8 mph - N/A   Clear